When you browse on this site, cookies collect data to enhance your experience and personalize the content and advertising you see.
Visit our Privacy Policy to learn more. By continuing to use the site, you agree to this use of cookies and data.
  • In Hungary
  • List of Countries
  • For 7 days
  • Water Temperature
  • Weather Map
  • News
  • Weather Widgets
  • user-avatar
    Login

    Hourly Weather Budingen

    Today, 30 March, Monday

    Time Temperature Precipitation Wind Pressure Humidity
    00:00 -4°C° 0 mm 5 mps 755 mmHg 79%
    01:00 -3°C° 0 mm 4 mps 755 mmHg 77%
    02:00 -4°C° 0 mm 4 mps 755 mmHg 75%
    03:00 -5°C° 0 mm 3 mps 755 mmHg 73%
    04:00 -5°C° 0 mm 3 mps 754 mmHg 71%
    05:00 -5°C° 0 mm 3 mps 755 mmHg 68%
    06:00 -5°C° 0 mm 3 mps 755 mmHg 66%
    07:00 -4°C° 0 mm 2 mps 755 mmHg 63%
    08:00 -2°C° 0 mm 2 mps 755 mmHg 52%
    09:00 +1°C° 0 mm 2 mps 755 mmHg 42%
    10:00 +3°C° 0 mm 2 mps 755 mmHg 31%
    11:00 +4°C° 0 mm 2 mps 754 mmHg 30%
    12:00 +5°C° 0 mm 2 mps 753 mmHg 28%
    13:00 +7°C° 0 mm 2 mps 753 mmHg 27%
    14:00 +7°C° 0 mm 2 mps 752 mmHg 30%
    15:00 +7°C° 0 mm 2 mps 752 mmHg 33%
    16:00 +7°C° 0 mm 3 mps 751 mmHg 36%
    17:00 +6°C° 0 mm 2 mps 751 mmHg 46%
    18:00 +5°C° 0 mm 2 mps 751 mmHg 56%
    19:00 +3°C° 0 mm 2 mps 751 mmHg 66%
    20:00 +3°C° 0 mm 1 mps 751 mmHg 72%
    21:00 +3°C° 0 mm 1 mps 752 mmHg 79%
    22:00 +2°C° 0 mm 1 mps 752 mmHg 86%
    23:00 +2°C° 0 mm 1 mps 752 mmHg 88%

    Tomorrow, 31 March, Tuesday

    Time Temperature Precipitation Wind Pressure Humidity
    00:00 +1°C° 0 mm 1 mps 752 mmHg 91%
    01:00 +1°C° 0 mm 1 mps 752 mmHg 93%
    02:00 +2°C° 0 mm 1 mps 752 mmHg 92%
    03:00 +1°C° 0 mm 2 mps 753 mmHg 90%
    04:00 +1°C° 0 mm 2 mps 753 mmHg 89%
    05:00 0°C° 0 mm 3 mps 753 mmHg 87%
    06:00 0°C° 0 mm 3 mps 753 mmHg 84%
    07:00 0°C° 0 mm 3 mps 754 mmHg 82%
    08:00 +1°C° 0 mm 3 mps 754 mmHg 70%
    09:00 +1°C° 0 mm 4 mps 754 mmHg 59%
    10:00 +3°C° 0 mm 4 mps 755 mmHg 47%
    11:00 +4°C° 0 mm 4 mps 755 mmHg 44%
    12:00 +5°C° 0 mm 3 mps 754 mmHg 42%
    13:00 +7°C° 0 mm 3 mps 754 mmHg 39%
    14:00 +7°C° 0 mm 3 mps 754 mmHg 40%
    15:00 +7°C° 0 mm 3 mps 753 mmHg 41%
    16:00 +7°C° 0 mm 3 mps 753 mmHg 41%
    17:00 +4°C° 0 mm 3 mps 753 mmHg 47%
    18:00 +2°C° 0 mm 3 mps 753 mmHg 53%
    19:00 +2°C° 0 mm 2 mps 753 mmHg 59%
    20:00 +1°C° 0 mm 2 mps 753 mmHg 61%
    21:00 -1°C° 0 mm 2 mps 753 mmHg 62%
    22:00 0°C° 0 mm 1 mps 753 mmHg 64%
    23:00 0°C° 0 mm 1 mps 753 mmHg 65%

    Day after tomorrow, 1 April, Wednesday

    Time Temperature Precipitation Wind Pressure Humidity
    00:00 0°C° 0 mm 1 mps 753 mmHg 65%
    01:00 -1°C° 0 mm 1 mps 753 mmHg 66%
    02:00 -1°C° 0 mm 1 mps 752 mmHg 66%
    03:00 -1°C° 0 mm 1 mps 752 mmHg 66%
    04:00 -2°C° 0 mm 0 mps 751 mmHg 66%
    05:00 -2°C° 0 mm 0 mps 751 mmHg 64%
    06:00 -1°C° 0 mm 0 mps 751 mmHg 61%
    07:00 -1°C° 0 mm 0 mps 751 mmHg 59%
    08:00 +2°C° 0 mm 0 mps 751 mmHg 52%
    09:00 +4°C° 0 mm 0 mps 750 mmHg 45%
    10:00 +7°C° 0 mm 0 mps 750 mmHg 38%
    11:00 +8°C° 0 mm 0 mps 750 mmHg 37%
    12:00 +10°C° 0 mm 1 mps 749 mmHg 36%
    13:00 +11°C° 0 mm 1 mps 749 mmHg 34%
    14:00 +11°C° 0 mm 1 mps 748 mmHg 35%
    15:00 +11°C° 0 mm 1 mps 748 mmHg 36%
    16:00 +11°C° 0 mm 1 mps 747 mmHg 37%
    17:00 +9°C° 0 mm 1 mps 747 mmHg 44%
    18:00 +7°C° 0 mm 1 mps 746 mmHg 50%
    19:00 +5°C° 0 mm 1 mps 746 mmHg 57%
    20:00 +4°C° 0 mm 1 mps 746 mmHg 62%
    21:00 +4°C° 0 mm 1 mps 746 mmHg 67%
    22:00 +3°C° 0 mm 1 mps 747 mmHg 72%
    23:00 +2°C° 0 mm 1 mps 746 mmHg 76%

    2 April, Thursday

    Time Temperature Precipitation Wind Pressure Humidity
    00:00 +2°C° 0 mm 1 mps 746 mmHg 80%
    01:00 +1°C° 0 mm 1 mps 746 mmHg 84%
    02:00 +1°C° 0 mm 1 mps 746 mmHg 86%
    03:00 +1°C° 0 mm 1 mps 746 mmHg 87%
    04:00 0°C° 0 mm 1 mps 745 mmHg 88%
    05:00 +1°C° 0 mm 1 mps 746 mmHg 86%
    06:00 0°C° 0 mm 0 mps 746 mmHg 83%
    07:00 +1°C° 0 mm 0 mps 746 mmHg 80%
    08:00 +4°C° 0 mm 1 mps 746 mmHg 72%
    09:00 +6°C° 0 mm 1 mps 745 mmHg 64%
    10:00 +8°C° 0 mm 1 mps 745 mmHg 55%
    11:00 +9°C° 0 mm 1 mps 745 mmHg 53%
    12:00 +9°C° 0 mm 2 mps 744 mmHg 50%
    13:00 +10°C° 0 mm 2 mps 744 mmHg 47%
    14:00 +10°C° 0 mm 2 mps 743 mmHg 47%
    15:00 +10°C° 0 mm 2 mps 743 mmHg 47%
    16:00 +10°C° 0 mm 2 mps 742 mmHg 47%
    17:00 +8°C° 0 mm 2 mps 742 mmHg 53%
    18:00 +8°C° 0 mm 1 mps 742 mmHg 59%
    19:00 +6°C° 0 mm 1 mps 742 mmHg 65%
    20:00 +6°C° 0 mm 1 mps 742 mmHg 69%
    21:00 +5°C° 0 mm 1 mps 742 mmHg 72%
    22:00 +4°C° 0 mm 1 mps 742 mmHg 76%
    23:00 +4°C° 0 mm 1 mps 742 mmHg 79%

    3 April, Friday

    Time Temperature Precipitation Wind Pressure Humidity
    00:00 +3°C° 0 mm 1 mps 742 mmHg 82%
    01:00 +3°C° 0 mm 1 mps 742 mmHg 85%
    02:00 +3°C° 0 mm 1 mps 742 mmHg 85%
    03:00 +2°C° 0 mm 2 mps 742 mmHg 86%
    04:00 +1°C° 0 mm 2 mps 742 mmHg 87%
    05:00 +2°C° 0 mm 2 mps 742 mmHg 85%
    06:00 +3°C° 0 mm 2 mps 743 mmHg 83%
    07:00 +3°C° 0 mm 2 mps 743 mmHg 81%
    08:00 +3°C° 0 mm 3 mps 744 mmHg 81%
    09:00 +4°C° 0 mm 3 mps 744 mmHg 81%
    10:00 +5°C° 0 mm 3 mps 744 mmHg 81%
    11:00 +7°C° 0.1 mm 3 mps 745 mmHg 77%
    12:00 +8°C° 0.1 mm 3 mps 745 mmHg 73%
    13:00 +9°C° 0.1 mm 3 mps 746 mmHg 68%
    14:00 +9°C° 0 mm 3 mps 746 mmHg 62%
    15:00 +10°C° 0 mm 3 mps 746 mmHg 56%
    16:00 +10°C° 0 mm 3 mps 746 mmHg 50%
    17:00 +9°C° 0 mm 3 mps 747 mmHg 54%
    18:00 +7°C° 0 mm 2 mps 747 mmHg 59%
    19:00 +6°C° 0 mm 2 mps 747 mmHg 63%
    20:00 +5°C° 0 mm 2 mps 748 mmHg 66%
    21:00 +3°C° 0 mm 2 mps 749 mmHg 70%
    22:00 +3°C° 0 mm 1 mps 750 mmHg 74%
    23:00 +3°C° 0 mm 1 mps 750 mmHg 76%

    4 April, Saturday

    Time Temperature Precipitation Wind Pressure Humidity
    00:00 +2°C° 0 mm 1 mps 750 mmHg 78%
    01:00 +2°C° 0 mm 1 mps 751 mmHg 79%
    02:00 +1°C° 0 mm 1 mps 751 mmHg 80%
    03:00 +1°C° 0 mm 1 mps 751 mmHg 81%
    04:00 +1°C° 0 mm 1 mps 751 mmHg 81%
    05:00 +1°C° 0 mm 1 mps 752 mmHg 78%
    06:00 +2°C° 0 mm 1 mps 752 mmHg 75%
    07:00 +2°C° 0 mm 1 mps 753 mmHg 72%
    08:00 +3°C° 0 mm 2 mps 753 mmHg 64%
    09:00 +5°C° 0 mm 2 mps 753 mmHg 55%
    10:00 +8°C° 0 mm 3 mps 753 mmHg 47%
    11:00 +9°C° 0 mm 3 mps 753 mmHg 43%
    12:00 +10°C° 0 mm 3 mps 753 mmHg 40%
    13:00 +11°C° 0 mm 3 mps 752 mmHg 36%
    14:00 +11°C° 0 mm 3 mps 752 mmHg 36%
    15:00 +12°C° 0 mm 3 mps 752 mmHg 36%
    16:00 +12°C° 0 mm 3 mps 751 mmHg 36%
    17:00 +10°C° 0 mm 3 mps 751 mmHg 42%
    18:00 +8°C° 0 mm 2 mps 751 mmHg 48%
    19:00 +7°C° 0 mm 2 mps 751 mmHg 54%
    20:00 +6°C° 0 mm 2 mps 752 mmHg 55%
    21:00 +5°C° 0 mm 2 mps 752 mmHg 57%
    22:00 +4°C° 0 mm 2 mps 753 mmHg 58%
    23:00 +4°C° 0 mm 2 mps 753 mmHg 61%
    Show more